Regional Weather Roundup
Issued by NWS Little Rock, AR

Home | Current Version | Previous Version | Graphics & Text | Print | Product List | Glossary On
Versions: 1 2 3 4 5 6 7 8 9 10 11 12 13 14 15 16 17 18 19 20 21 22 23 24 25 26 27 28 29 30 31 32 33 34 35 36 37 38 39 40 41 42 43 44 45 46 47 48 49 50
000
ASUS44 KLZK 240005
RWRLZK

WEATHER ROUNDUP FOR ARKANSAS
NATIONAL WEATHER SERVICE LITTLE ROCK AR
700 PM CDT SAT MAY 23 2015

NOTE: "FAIR" INDICATES FEW OR NO CLOUDS BELOW 12,000 FEET WITH NO
SIGNIFICANT WEATHER AND/OR OBSTRUCTIONS TO VISIBILITY.

ARZ001-003-010-029-240100-
NORTHWEST ARKANSAS

CITY           SKY/WX    TMP DP  RH WIND       PRES   REMARKS
FAYETTEVILLE   CLOUDY    71  63  75 E10       30.04F
6HR MIN TEMP:  69; 6HR MAX TEMP:  75;

FORT SMITH     CLOUDY    75  65  70 E12       30.00F
6HR MIN TEMP:  73; 6HR MAX TEMP:  78;

HARRISON       CLOUDY    70  64  81 SE7       30.11S
6HR MIN TEMP:  64; 6HR MAX TEMP:  73;

BENTONVILLE    CLOUDY    72  63  73 SE13      30.04F
6HR MIN TEMP:  72; 6HR MAX TEMP:  75;

ROGERS         LGT RAIN  71  64  78 E12       30.05F
6HR MIN TEMP:  70; 6HR MAX TEMP:  76;

SILOAM SPGS    CLOUDY    68  61  77 E9        30.03F
6HR MIN TEMP:  66; 6HR MAX TEMP:  75; 6HR PCP:  0.14;

HIGHFILL       CLOUDY    71  64  78 SE12      30.03F
6HR MIN TEMP:  70; 6HR MAX TEMP:  77; 6HR PCP:  0.02;

SPRINGDALE     CLOUDY    72  63  73 SE8G15    30.07F
$$

ARZ004-005-016-240100-
NORTH CENTRAL ARKANSAS

CITY           SKY/WX    TMP DP  RH WIND       PRES   REMARKS
BATESVILLE     SUNNY     75  59  57 SE6       30.14R
6HR MIN TEMP:  73; 6HR MAX TEMP:  81;

FLIPPIN        PTSUNNY   73  61  64 E8        30.09F
6HR MIN TEMP:  66; 6HR MAX TEMP:  75;

MTN HOME       PTSUNNY   73  60  63 SE8       30.10F
6HR MIN TEMP:  67; 6HR MAX TEMP:  75;

$$

ARZ040-041-240100-
WEST CENTRAL ARKANSAS

CITY           SKY/WX    TMP DP  RH WIND       PRES   REMARKS
MENA           PTSUNNY   79  68  69 E9        30.03F
MOUNT IDA      MOSUNNY   79  66  64 SE6       30.03F
6HR MIN TEMP:  73; 6HR MAX TEMP:  81;

$$

ARZ009-017-025-026-028-240100-
NORTHEAST ARKANSAS

CITY           SKY/WX    TMP DP  RH WIND       PRES   REMARKS
CORNING          N/A     77  59  53 SE10      30.15F
JONESBORO      MOSUNNY   77  56  48 SE10      30.14F
6HR MIN TEMP:  75; 6HR MAX TEMP:  79;

NEWPORT        MOSUNNY   78  59  52 SE10      30.14F
6HR MIN TEMP:  77; 6HR MAX TEMP:  81;

WALNUT RIDGE   SUNNY     77  55  47 SE10      30.14F
6HR MIN TEMP:  73; 6HR MAX TEMP:  79;

BLYTHEVILLE    MOSUNNY   79  57  46 SE8       30.16F
6HR MIN TEMP:  76; 6HR MAX TEMP:  81;

$$

ARZ022-023-033-042-044-240100-
CENTRAL ARKANSAS

CITY           SKY/WX    TMP DP  RH WIND       PRES   REMARKS
LITTLE ROCK    PTSUNNY   79  63  57 E10       30.08F
6HR MIN TEMP:  77; 6HR MAX TEMP:  82;

N LITTLE ROCK  PTSUNNY   78  67  69 E10       30.08F
6HR MIN TEMP:  75; 6HR MAX TEMP:  80;

JACKSONVILLE   MOSUNNY   78  65  66 E8        30.09
6HR MIN TEMP:  77; 6HR MAX TEMP:  82;

SEARCY         MOSUNNY   77  62  59 E7        30.13F
6HR MIN TEMP:  76; 6HR MAX TEMP:  81;

HOT SPRINGS    MOSUNNY   79  66  64 SE9       30.06F
6HR MIN TEMP:  76; 6HR MAX TEMP:  82;

RUSSELLVILLE   PTSUNNY   77  64  64 SE8G17    30.07F
6HR MIN TEMP:  73; 6HR MAX TEMP:  79;

CLINTON        FAIR      75  64  69 E7        30.12F
$$

ARZ036-240100-
EAST ARKANSAS

CITY           SKY/WX    TMP DP  RH WIND       PRES   REMARKS
WEST MEMPHIS   MOSUNNY   79  59  50 SE9       30.13F
6HR MIN TEMP:  77; 6HR MAX TEMP:  81;

$$

ARZ050-053-066-070-073-240100-
SOUTHWEST ARKANSAS

CITY           SKY/WX    TMP DP  RH WIND       PRES   REMARKS
ARKADELPHIA    FAIR      82  71  69 VRB3      30.04F HX  86
6HR MIN TEMP:  82; 6HR MAX TEMP:  87;

CAMDEN         SUNNY     82  64  54 NE10G16   30.05F
TEXARKANA      PTSUNNY   80  69  69 SE8       30.01F
6HR MIN TEMP:  80; 6HR MAX TEMP:  85;

EL DORADO      PTSUNNY   80  67  64 E7        30.05F
6HR MIN TEMP:  80; 6HR MAX TEMP:  85;

DE QUEEN       CLOUDY    77  70  79 E7        29.98F
6HR MIN TEMP:  76; 6HR MAX TEMP:  84;

$$

ARZ056-057-069-240100-
SOUTHEAST ARKANSAS

CITY           SKY/WX    TMP DP  RH WIND       PRES   REMARKS
PINE BLUFF     SUNNY     81  65  58 SE13      30.09F
6HR MIN TEMP:  80; 6HR MAX TEMP:  84;

STUTTGART      MOSUNNY   81  63  54 MISG      30.11F
6HR MIN TEMP:  77; 6HR MAX TEMP:  82;

MONTICELLO     SUNNY     83  66  56 SE6       30.09F HX  85
6HR MIN TEMP:  80; 6HR MAX TEMP:  84;


$$





USA.gov is the U.S. government's official web portal to all federal, state and local government web resources and services.